TimeWET,TemperatureF,Dew PointF,Humidity,Sea Level PressureIn,VisibilityMPH,Wind Direction,Wind SpeedMPH,Gust SpeedMPH,PrecipitationIn,Events,Conditions,WindDirDegrees,DateUTC
12:00 AM,65,62,86,30.02,9,WNW,3.5,,,,Scattered Clouds,300,2012-10-04 00:00:00
12:00 AM,64.4,62.6,94,30.06,6.2,WNW,3.5,-,N/A,,Partly Cloudy,300,2012-10-04 00:00:00
1:00 AM,64.4,60.8,88,30.04,6.2,Variable,2.3,-,N/A,,Partly Cloudy,0,2012-10-04 01:00:00
2:00 AM,64.4,62.6,94,30.04,6.2,NNE,4.6,-,N/A,,Partly Cloudy,20,2012-10-04 02:00:00
3:00 AM,62.6,60.8,94,30.01,0.4,NW,4.6,-,N/A,Fog,Fog,320,2012-10-04 03:00:00
3:09 AM,62.6,60.8,94,30.01,0.4,NNW,4.6,-,N/A,Fog,Fog,340,2012-10-04 03:09:00
4:00 AM,62.6,62.6,100,30.01,0.4,North,6.9,-,N/A,Fog,Fog,350,2012-10-04 04:00:00
4:45 AM,62.6,62.6,100,30.01,0.6,North,4.6,-,N/A,Fog,Fog,360,2012-10-04 04:45:00
5:00 AM,62.6,62.6,100,30.01,0.6,North,4.6,-,N/A,Fog,Fog,360,2012-10-04 05:00:00
6:00 AM,62.6,62.6,100,30.04,0.2,NNW,3.5,-,N/A,Fog,Fog,330,2012-10-04 06:00:00
6:44 AM,60.8,60.8,100,30.01,0.1,NW,4.6,-,N/A,Fog,Fog,310,2012-10-04 06:44:00
7:00 AM,60.8,60.8,100,30.04,0.1,NW,4.6,-,N/A,Fog,Fog,310,2012-10-04 07:00:00
7:55 AM,62.6,62.6,100,30.04,0.9,Variable,2.3,-,N/A,,Scattered Clouds,0,2012-10-04 07:55:00
8:15 AM,64.4,64.4,100,30.04,3.1,North,4.6,-,N/A,,Scattered Clouds,350,2012-10-04 08:15:00
9:00 AM,67,67,99,29.99,5,North,6.9,,,,Scattered Clouds,350,2012-10-04 09:00:00
9:00 AM,66.2,66.2,100,30.04,5.0,North,6.9,-,N/A,,Partly Cloudy,350,2012-10-04 09:00:00
10:00 AM,75.2,62.6,65,30.04,-9999.0,North,8.1,-,N/A,,Clear,360,2012-10-04 10:00:00
12:00 PM,82,62,42,29.90,9,North,18.4,,,,Partly Cloudy,350,2012-10-04 12:00:00
12:00 PM,82.4,62.6,51,29.98,-9999.0,North,18.4,-,N/A,,Clear,360,2012-10-04 12:00:00
1:00 PM,80.6,62.6,54,29.98,6.2,North,21.9,-,N/A,,Scattered Clouds,360,2012-10-04 13:00:00
2:00 PM,80.6,64.4,58,29.95,6.2,North,19.6,-,N/A,,Scattered Clouds,360,2012-10-04 14:00:00
2:49 PM,78,64,53,29.88,9,North,18.4,,,,Scattered Clouds,0,2012-10-04 14:49:00
3:00 PM,78.8,64.4,61,29.98,6.2,North,18.4,-,N/A,,Mostly Cloudy,360,2012-10-04 15:00:00
5:00 PM,77.0,62.6,61,29.98,6.2,North,13.8,-,N/A,,Scattered Clouds,360,2012-10-04 17:00:00
8:00 PM,68.0,62.6,83,30.01,6.2,North,4.6,-,N/A,,Scattered Clouds,360,2012-10-04 20:00:00
9:00 PM,67,62,79,29.99,6,West,1.2,,,,Scattered Clouds,270,2012-10-04 21:00:00
9:00 PM,66.2,62.6,88,30.04,6.2,Variable,1.2,-,N/A,,Scattered Clouds,0,2012-10-04 21:00:00
11:00 PM,66.2,60.8,83,30.01,6.2,Calm,Calm,-,N/A,,Scattered Clouds,0,2012-10-04 23:00:00